Location: Milton
(43.5183°N, 79.8775°W)
Time: 04:47:25
(UTC+00:00)

N. Korean satellite - Pass Details

Date: 07 December 2022
Orbit: 407 x 444 km, 97.3° (Epoch: 28 January)

Event Time Altitude Azimuth Distance (km) Brightness Sun altitude
Rises 10:53:42 0° 8° (N) 2,502 10.1 -18.4°
Reaches altitude 10° 10:55:47 10° 5° (N) 1,615 9.1 -18.0°
Maximum altitude 10:59:12 59° 285° (WNW) 532 6.4 -17.4°
Drops below altitude 10° 11:02:32 10° 205° (SSW) 1,573 9.0 -16.8°
Sets 11:04:32 0° 202° (SSW) 2,428 10.1 -16.5°
